Location: Lincolnton
(35.4660°N, 81.2500°W)
Time: 01:46:03
(UTC-04:00)

Hubble Space Telescope - Visible Passes

Search period start: 27 May 2015 00:00
Search period end: 06 June 2015 00:00
Orbit: 542 x 546 km, 28.5° (Epoch: 26 May)

Date Brightness Start Highest point End Pass type
(mag) Time Alt. Az. Time Alt. Az. Time Alt. Az.
03 Jun 3.3 03:59:34 10° SE 03:59:34 10° SE 03:59:37 10° SE visible
03 Jun 2.1 05:35:19 10° SW 05:38:46 25° S 05:42:14 10° ESE visible
04 Jun 3.3 03:51:10 11° SE 03:51:10 11° SE 03:51:34 10° SE visible
04 Jun 2.0 05:26:36 11° SW 05:30:00 28° S 05:33:34 10° ESE visible
05 Jun 3.3 03:42:46 12° SE 03:42:46 12° SE 03:43:13 10° ESE visible
05 Jun 1.8 05:18:12 13° SW 05:21:13 30° S 05:24:52 10° ESE visible
